1512817200.34,12534,5.0,71828.5,-9.11,-11.73,-11.73,0,*58
1512817201.6,12535,5.06,71828.8,-9.13,-11.73,-11.73,0,*5B
1512817202.89,12536,5.0,71828.0,-9.11,-11.73,-11.73,0,*5A
1512817204.16,12537,5.0,71828.5,-9.09,-11.77,-11.73,0,*56
1512817205.42,12538,5.0,71826.8,-9.09,-11.77,-11.77,0,*5D
1512817206.71,12539,5.0,71826.3,-9.11,-11.89,-11.81,0,*5D
1512817207.97,12540,5.0,71824.8,-9.13,-11.81,-11.81,0,*59
1512817209.23,12541,5.0,71824.8,-9.09,-11.77,-11.77,0,*53
1512817210.5,12542,5.0,71824.8,-9.09,-11.85,-11.73,0,*59
1512817211.76,12543,5.0,71826.8,-9.09,-11.85,-11.77,0,*5C
1512817213.05,12544,5.0,71828.0,-9.11,-11.73,-11.73,0,*5F
1512817214.34,12545,5.0,71824.8,-9.11,-11.73,-11.59,0,*56
1512817215.61,12546,5.0,71826.3,-9.09,-11.67,-11.59,0,*59
1512817216.87,12547,5.0,71824.0,-9.09,-11.73,-11.67,0,*50
1512817218.15,12548,5.06,71828.0,-9.09,-11.67,-11.67,0,*5A
1512817219.41,12549,5.0,71824.8,-9.09,-11.73,-11.67,0,*5E
1512817220.68,12550,5.0,71826.5,-9.09,-11.73,-11.73,0,*53
1512817221.94,12551,5.0,71826.8,-9.09,-11.77,-11.77,0,*52
1512817223.21,12552,5.0,71824.3,-9.09,-11.67,-11.67,0,*51
1512817224.48,12553,5.0,71824.3,-9.09,-11.73,-11.67,0,*55
1512817225.76,12554,5.06,71826.3,-9.07,-11.73,-11.67,0,*5C
1512817227.03,12555,5.0,71826.8,-9.09,-11.67,-11.67,0,*56
1512817228.3,12556,5.0,71824.0,-9.09,-11.73,-11.59,0,*5D
1512817229.58,12557,5.06,71830.3,-9.07,-11.73,-11.67,0,*5F
1512817230.87,12558,5.0,71824.3,-9.07,-11.67,-11.67,0,*55
1512817232.15,12559,5.0,71824.0,-9.07,-11.73,-11.67,0,*51
1512817233.42,12560,5.0,71826.5,-9.09,-11.73,-11.73,0,*50
1512817234.68,12561,5.0,71826.3,-9.09,-11.77,-11.77,0,*51
1512817235.95,12562,5.0,71826.3,-9.09,-11.85,-11.77,0,*5F
1512817237.23,12563,5.0,71824.8,-9.07,-11.77,-11.73,0,*59
1512817238.52,12564,5.0,71826.5,-9.07,-11.67,-11.67,0,*5A
1512817239.78,12565,5.0,71826.8,-9.09,-11.73,-11.67,0,*50
1512817241.07,12566,5.0,71826.5,-9.07,-11.67,-11.67,0,*58
1512817242.35,12567,5.0,71826.5,-9.07,-11.73,-11.73,0,*59
1512817243.63,12568,5.0,71826.5,-9.07,-11.85,-11.77,0,*5B
1512817244.92,12569,5.0,71824.8,-9.07,-11.89,-11.89,0,*57
1512817246.21,12570,5.0,71824.3,-9.07,-11.89,-11.85,0,*53
1512817247.47,12571,5.0,71824.0,-9.09,-11.85,-11.77,0,*5D
1512817248.75,12572,5.0,71824.0,-9.07,-11.73,-11.67,0,*58
1512817250.04,12573,5.0,71826.0,-9.07,-11.67,-11.67,0,*5C
1512817251.33,12574,5.0,71822.5,-9.07,-11.85,-11.85,0,*5B
1512817252.61,12575,5.0,71822.8,-9.07,-11.77,-11.67,0,*5B
1512817253.88,12576,5.0,71822.8,-9.09,-11.67,-11.67,0,*57
1512817255.17,12577,5.0,71824.5,-9.07,-11.67,-11.73,0,*5D
1512817256.45,12578,5.0,71822.8,-9.07,-11.77,-11.77,0,*57
1512817257.74,12579,5.0,71824.0,-9.07,-11.67,-11.67,0,*56
1512817259.03,12580,5.06,71828.0,-9.07,-11.67,-11.67,0,*50
1512817260.31,12581,5.0,71822.8,-9.07,-11.73,-11.73,0,*51
1512817261.59,12582,5.0,71826.0,-9.07,-11.77,-11.77,0,*52
1512817262.88,12583,5.06,71826.3,-9.07,-11.67,-11.67,0,*53
1512817264.16,12584,5.0,71826.5,-9.07,-11.67,-11.67,0,*54
1512817265.45,12585,5.0,71824.3,-9.07,-11.73,-11.67,0,*50
1512817266.72,12586,5.0,71824.0,-9.05,-11.63,-11.63,0,*54
1512817268.01,12587,5.0,71826.5,-9.07,-11.67,-11.59,0,*5A
1512817269.29,12588,5.0,71826.0,-9.07,-11.89,-11.85,0,*54
1512817270.55,12589,5.0,71824.5,-9.05,-11.73,-11.73,0,*5B
1512817271.82,12590,5.0,71824.3,-9.05,-11.63,-11.63,0,*53
1512817273.12,12591,5.0,71822.8,-9.03,-11.55,-11.63,0,*51
1512817274.4,12592,5.06,71826.3,-9.03,-11.67,-11.73,0,*52
1512817275.66,12593,5.0,71824.5,-9.05,-11.73,-11.73,0,*50
1512817276.96,12594,5.0,71826.5,-9.03,-11.63,-11.67,0,*55
1512817278.23,12595,5.0,71824.0,-9.05,-11.63,-11.63,0,*56
1512817279.5,12596,5.0,71826.3,-9.05,-11.55,-11.55,0,*55
1512817280.76,12597,5.0,71822.5,-9.05,-11.55,-11.55,0,*54
1512817282.03,12598,5.0,71824.3,-9.05,-11.55,-11.55,0,*5B
1512817283.3,12599,5.0,71826.8,-9.05,-11.63,-11.67,0,*5E
1512817284.59,12600,5.0,71826.3,-9.03,-11.67,-11.63,0,*5B
1512817285.86,12601,5.0,71824.8,-9.05,-11.81,-11.67,0,*50
1512817287.15,12602,5.0,71826.5,-9.03,-11.63,-11.63,0,*5D
1512817288.42,12603,5.06,71824.5,-9.05,-11.63,-11.63,0,*5A
1512817289.71,12604,5.06,71826.0,-9.03,-11.81,-11.67,0,*53
1512817291.0,12605,5.0,71826.5,-9.03,-11.67,-11.67,0,*5A
1512817292.29,12606,5.0,71822.8,-9.03,-11.63,-11.63,0,*59
1512817293.59,12607,5.0,71822.0,-9.03,-11.63,-11.55,0,*5D
1512817294.87,12608,5.0,71824.5,-9.03,-11.55,-11.51,0,*53
1512817296.14,12609,5.0,71820.0,-9.05,-11.55,-11.55,0,*50
1512817297.43,12610,5.0,71820.3,-9.03,-11.55,-11.55,0,*5E
1512817298.72,12611,5.06,71826.0,-8.99,-11.89,-11.89,0,*5D
1512817300.0,12612,5.0,71826.5,-8.99,-11.89,-11.81,0,*56
1512817301.29,12613,5.0,71826.5,-8.99,-11.63,-11.59,0,*56
1512817302.57,12614,5.0,71824.5,-9.03,-11.73,-11.81,0,*57
1512817303.86,12615,5.0,71822.0,-8.99,-11.67,-11.63,0,*5D
1512817305.14,12616,5.0,71822.8,-8.99,-11.89,-11.77,0,*5B
1512817306.43,12617,5.0,71820.8,-8.99,-11.67,-11.63,0,*5F
1512817307.71,12618,5.0,71820.5,-8.99,-11.77,-11.77,0,*54
1512817309.0,12619,5.0,71824.5,-8.99,-11.67,-11.63,0,*51
1512817310.29,12620,5.0,71820.5,-8.99,-11.59,-11.59,0,*5F
1512817311.58,12621,5.06,71826.0,-8.99,-11.59,-11.63,0,*57
1512817312.87,12622,5.06,71828.8,-8.99,-11.67,-11.59,0,*50
1512817314.13,12623,5.0,71824.8,-8.97,-11.77,-11.67,0,*53
1512817315.4,12624,5.0,71826.0,-8.97,-11.77,-11.63,0,*50
1512817316.69,12625,5.0,71824.0,-8.99,-11.59,-11.63,0,*53
1512817317.95,12626,5.06,71826.0,-8.97,-11.59,-11.51,0,*5F
1512817319.21,12627,5.0,71826.3,-8.97,-11.59,-11.51,0,*5E
1512817320.47,12628,5.0,71826.3,-8.97,-11.59,-11.59,0,*59
1512817321.73,12629,5.0,71824.5,-8.97,-11.63,-11.59,0,*51
1512817323.02,12630,5.0,71822.8,-8.99,-11.63,-11.59,0,*57
1512817324.28,12631,5.06,71824.3,-8.97,-11.77,-11.67,0,*50
1512817325.56,12632,5.0,71822.8,-8.95,-11.73,-11.73,0,*50
1512817326.84,12633,5.0,71824.3,-8.95,-11.73,-11.73,0,*51
1512817328.14,12634,5.0,71820.5,-8.95,-11.63,-11.63,0,*56
1512817329.42,12635,5.0,71822.8,-8.95,-11.63,-11.59,0,*5E
1512817330.71,12636,5.06,71824.3,-8.95,-11.59,-11.59,0,*54
1512817332.0,12637,5.0,71822.5,-8.95,-11.55,-11.55,0,*55
1512817333.28,12638,5.0,71822.0,-8.95,-11.59,-11.59,0,*5A
1512817334.58,12639,5.0,71824.5,-8.95,-11.63,-11.63,0,*5B
1512817335.84,12640,5.0,71824.0,-8.93,-11.59,-11.55,0,*5F
1512817337.13,12641,5.0,71824.0,-8.95,-11.59,-11.55,0,*58
1512817338.42,12642,5.06,71828.3,-8.95,-11.55,-11.55,0,*57
1512817339.71,12643,5.0,71822.5,-8.95,-11.55,-11.55,0,*56
1512817340.97,12644,5.0,71826.0,-8.93,-11.55,-11.55,0,*57
1512817342.26,12645,5.06,71830.5,-8.95,-11.55,-11.55,0,*50
1512817343.47,12646,5.0,71824.0,-8.93,-11.41,-11.45,0,*51
1512817344.7,12647,5.0,71824.0,-8.93,-11.45,-11.41,0,*50
1512817345.91,12648,5.06,71826.0,-8.93,-11.45,-11.45,0,*5B
1512817347.17,12649,5.0,71824.5,-8.91,-11.41,-11.37,0,*59
1512817348.43,12650,5.0,71820.0,-8.91,-11.29,-11.23,0,*5A
1512817349.67,12651,5.06,71826.5,-8.91,-11.41,-11.41,0,*51
1512817350.93,12652,5.0,71824.3,-8.91,-11.51,-11.41,0,*53
1512817352.18,12653,5.0,71824.8,-8.89,-11.51,-11.37,0,*5A
1512817353.46,12654,5.0,71822.3,-8.91,-11.51,-11.51,0,*54
1512817354.7,12655,5.0,71826.0,-8.91,-11.41,-11.41,0,*55
1512817355.95,12656,5.0,71826.0,-8.89,-11.33,-11.33,0,*5F
1512817357.21,12657,5.0,71824.0,-8.91,-11.37,-11.23,0,*52
1512817358.42,12658,5.06,71828.0,-8.89,-11.23,-11.23,0,*51
1512817359.63,12659,5.06,71824.3,-8.89,-11.23,-11.23,0,*50
1512817360.87,12660,5.06,71826.8,-8.87,-11.23,-11.23,0,*54
1512817362.15,12661,5.06,71826.3,-8.87,-11.37,-11.37,0,*55
1512817363.43,12662,5.0,71824.5,-8.87,-11.37,-11.33,0,*52
1512817364.69,12663,5.0,71824.5,-8.87,-11.33,-11.19,0,*5F
1512817365.96,12664,5.06,71826.8,-8.87,-11.45,-11.37,0,*55
1512817367.17,12665,5.06,71828.3,-8.85,-11.41,-11.19,0,*5E
1512817368.41,12666,5.0,71824.0,-8.85,-11.41,-11.29,0,*5E
1512817369.65,12667,5.0,71826.8,-8.85,-11.33,-11.19,0,*59
1512817370.89,12668,5.06,71826.8,-8.87,-11.23,-11.11,0,*5D
1512817372.13,12669,5.06,71828.3,-8.85,-11.29,-11.15,0,*50
1512817373.36,12670,5.0,71826.8,-8.85,-11.33,-11.19,0,*5F
1512817374.63,12671,5.0,71824.8,-8.85,-11.29,-11.29,0,*56
1512817375.89,12672,5.0,71824.0,-8.83,-11.33,-11.33,0,*53
1512817377.15,12673,5.06,71826.8,-8.83,-11.29,-11.29,0,*52
1512817378.38,12674,5.0,71826.0,-8.81,-11.19,-11.15,0,*5B
1512817379.62,12675,5.06,71826.8,-8.83,-11.19,-11.07,0,*5B
1512817380.88,12676,5.0,71824.3,-8.81,-11.29,-11.19,0,*56
1512817382.12,12677,5.0,71824.3,-8.83,-11.45,-11.33,0,*57
1512817383.38,12678,5.0,71822.8,-8.81,-11.41,-11.33,0,*5E
1512817384.64,12679,5.0,71824.3,-8.81,-11.41,-11.29,0,*54
1512817385.9,12680,5.0,71824.8,-8.81,-11.41,-11.33,0,*59
1512817387.16,12681,5.0,71824.0,-8.81,-11.41,-11.33,0,*58
1512817388.45,12682,5.0,71824.3,-8.81,-11.29,-11.29,0,*5E
1512817389.71,12683,5.0,71820.8,-8.81,-11.33,-11.19,0,*57
1512817391.0,12684,5.0,71820.5,-8.81,-11.33,-11.29,0,*53
1512817392.29,12685,5.0,71826.0,-8.77,-11.29,-11.29,0,*50
1512817393.56,12686,5.0,71824.8,-8.77,-11.29,-11.23,0,*59
1512817394.77,12687,5.0,71822.8,-8.75,-11.23,-11.23,0,*50
1512817396.01,12688,5.0,71824.5,-8.75,-11.37,-11.23,0,*5A
1512817397.24,12689,5.06,71824.3,-8.75,-11.33,-11.19,0,*56
1512817398.48,12690,5.0,71824.5,-8.75,-11.37,-11.19,0,*5A
1512817399.74,12691,5.0,71822.8,-8.77,-11.37,-11.19,0,*59
1512817401.01,12692,5.06,71824.5,-8.77,-11.29,-11.15,0,*59
1512817402.21,12693,5.0,71822.3,-8.75,-11.19,-11.11,0,*5D
1512817403.45,12694,5.06,71824.5,-8.75,-11.19,-11.07,0,*5D
1512817404.69,12695,5.06,71826.0,-8.75,-11.19,-11.07,0,*5C
1512817405.92,12696,5.06,71824.3,-8.75,-11.07,-10.85,0,*5B
1512817407.16,12697,5.06,71824.8,-8.73,-11.11,-10.97,0,*58
1512817408.4,12698,5.06,71826.3,-8.73,-11.23,-11.11,0,*59
1512817409.64,12699,5.0,71820.3,-8.73,-11.23,-11.11,0,*58
1512817410.9,12700,5.0,71820.5,-8.73,-11.33,-11.19,0,*50
1512817412.16,12701,5.0,71820.8,-8.73,-11.19,-11.07,0,*56
1512817413.43,12702,5.0,71822.0,-8.69,-11.15,-11.07,0,*52
1512817414.69,12703,5.0,71822.5,-8.69,-11.29,-11.19,0,*53
1512817415.96,12704,5.06,71822.0,-8.69,-11.15,-11.07,0,*54
1512817417.19,12705,5.06,71826.5,-8.69,-11.19,-11.01,0,*5F
1512817418.46,12706,5.06,71826.0,-8.69,-11.07,-11.01,0,*53
1512817419.67,12707,5.06,71824.0,-8.67,-10.97,-10.85,0,*59
1512817420.89,12708,5.0,71822.8,-8.67,-10.97,-10.89,0,*5A
1512817422.1,12709,5.0,71822.8,-8.67,-10.97,-10.85,0,*57
1512817423.33,12710,5.06,71824.0,-8.67,-10.89,-10.75,0,*5F
1512817424.57,12711,5.06,71824.5,-8.67,-10.89,-10.71,0,*5A
1512817425.78,12712,5.0,71818.5,-8.67,-10.97,-10.85,0,*5D
1512817426.99,12713,5.06,71824.0,-8.67,-11.01,-10.85,0,*52
1512817428.22,12714,5.0,71822.3,-8.65,-11.11,-10.89,0,*5A
1512817429.46,12715,5.0,71820.5,-8.65,-11.11,-10.89,0,*5B
1512817430.7,12716,5.06,71824.5,-8.65,-11.01,-10.89,0,*59
1512817431.9,12717,5.06,71826.3,-8.63,-10.97,-10.85,0,*5C
1512817433.14,12718,5.0,71822.8,-8.65,-11.15,-11.01,0,*53
1512817434.38,12719,5.06,71824.0,-8.63,-10.71,-10.45,0,*56
1512817435.62,12720,5.0,71822.3,-8.63,-10.97,-10.79,0,*5B
1512817436.85,12721,5.0,71822.0,-8.63,-10.79,-10.53,0,*52
1512817438.08,12722,5.06,71822.3,-8.59,-10.79,-10.49,0,*53
1512817439.32,12723,5.0,71822.3,-8.61,-10.85,-10.53,0,*51
1512817440.55,12724,5.06,71824.3,-8.59,-10.75,-10.35,0,*52
1512817441.85,12725,5.0,71820.0,-8.61,-10.79,-10.41,0,*57
1512817443.15,12726,5.0,71822.0,-8.61,-10.67,-10.41,0,*5B
1512817444.39,12727,5.0,71822.3,-8.61,-10.53,-10.27,0,*5D
1512817445.66,12728,5.0,71820.8,-8.61,-10.67,-10.27,0,*55
1512817446.91,12729,5.0,71820.5,-8.59,-10.67,-10.35,0,*5C
1512817448.1,12730,5.0,71818.8,-8.59,-10.53,-10.23,0,*54
1512817449.34,12731,5.0,71820.3,-8.59,-10.41,-10.19,0,*5F
1512817450.58,12732,5.0,71822.5,-8.55,-10.41,-10.19,0,*50
1512817451.79,12733,5.06,71820.8,-8.55,-10.31,-10.09,0,*57
1512817453.0,12734,5.06,71824.3,-8.55,-10.31,-10.05,0,*5C
1512817454.23,12735,5.0,71822.5,-8.51,-10.19,-9.93,0,*64
1512817455.48,12736,5.06,71822.5,-8.55,-10.41,-10.19,0,*54
1512817456.68,12737,5.0,71822.8,-8.55,-10.49,-10.09,0,*5C
1512817457.92,12738,5.06,71820.0,-8.51,-10.45,-10.15,0,*56
1512817459.16,12739,5.06,71820.5,-8.51,-10.49,-10.15,0,*5B
1512817460.4,12740,5.06,71824.0,-8.49,-10.41,-10.09,0,*59
1512817461.6,12741,5.06,71822.5,-8.49,-10.53,-10.23,0,*53
1512817462.8,12742,5.06,71826.0,-8.49,-10.53,-10.23,0,*50
1512817464.07,12743,5.06,71820.3,-8.47,-10.41,-10.15,0,*59
1512817465.31,12744,5.0,71820.5,-8.47,-10.45,-10.23,0,*5F
1512817466.54,12745,5.06,71820.8,-8.47,-10.45,-10.23,0,*5E
1512817467.78,12746,5.06,71822.0,-8.47,-10.57,-10.23,0,*5E
1512817469.02,12747,5.06,71822.8,-8.47,-10.45,-10.15,0,*59
1512817470.29,12748,5.0,71822.5,-8.47,-10.41,-10.15,0,*52
1512817471.53,12749,5.06,71820.0,-8.47,-10.45,-10.15,0,*57
1512817472.75,12750,5.06,71822.8,-8.45,-10.35,-10.05,0,*5B
1512817473.98,12751,5.06,71820.5,-8.43,-10.27,-9.97,0,*6C
1512817475.21,12752,5.06,71824.8,-8.43,-10.27,-10.05,0,*5C
1512817476.45,12753,5.06,71820.3,-8.45,-10.41,-10.09,0,*57
1512817477.68,12754,5.06,71820.3,-8.43,-10.35,-10.05,0,*59
1512817478.9,12755,5.06,71822.0,-8.45,-10.35,-10.05,0,*5E
1512817480.12,12756,5.06,71820.3,-8.41,-10.31,-10.01,0,*59
1512817481.35,12757,5.06,71820.0,-8.39,-10.31,-10.05,0,*53
1512817482.59,12758,5.06,71820.3,-8.39,-10.35,-10.05,0,*58
1512817483.81,12759,5.06,71824.5,-8.41,-10.19,-10.01,0,*5C
1512817485.01,12760,5.0,71818.5,-8.41,-10.49,-10.05,0,*57
1512817486.25,12761,5.06,71820.3,-8.39,-10.45,-10.01,0,*51
1512817487.48,12762,5.06,71822.3,-8.39,-10.31,-9.79,0,*66
1512817488.7,12763,5.06,71818.5,-8.39,-10.23,-9.89,0,*6B
1512817489.93,12764,5.06,71822.3,-8.37,-10.19,-9.83,0,*61
1512817491.17,12765,5.06,71822.8,-8.35,-10.19,-9.75,0,*6B
1512817492.38,12766,5.06,71820.5,-8.37,-10.15,-9.75,0,*66
1512817493.61,12767,5.06,71822.5,-8.35,-10.15,-9.75,0,*65
1512817494.86,12768,5.06,71822.3,-8.35,-10.27,-9.83,0,*62
1512817496.1,12769,5.06,71822.3,-8.33,-10.41,-10.05,0,*53
1512817497.31,12770,5.0,71816.0,-8.29,-10.35,-9.97,0,*60
1512817498.55,12771,5.0,71816.3,-8.29,-10.15,-9.83,0,*66
1512817499.75,12772,5.06,71818.5,-8.29,-10.23,-9.71,0,*6D
1512817500.97,12773,5.06,71818.3,-8.29,-10.15,-9.71,0,*69
1512817502.17,12774,5.0,71818.0,-8.29,-10.05,-9.67,0,*68
1512817503.41,12775,5.06,71820.8,-8.27,-10.05,-9.61,0,*61
1512817504.63,12776,5.06,71820.3,-8.27,-10.09,-9.67,0,*68
1512817505.87,12777,5.0,71816.5,-8.27,-10.05,-9.61,0,*63
1512817507.12,12778,5.0,71816.3,-8.27,-10.01,-9.61,0,*68
1512817508.34,12779,5.06,71820.0,-8.25,-10.05,-9.61,0,*6F
1512817509.54,12780,5.06,71816.0,-8.25,-10.09,-9.75,0,*60
1512817510.73,12781,5.06,71816.3,-8.25,-10.05,-9.67,0,*6E
1512817511.94,12782,5.06,71816.5,-8.21,-10.19,-9.75,0,*67
1512817513.15,12783,5.06,71818.3,-8.21,-10.15,-9.75,0,*6A
1512817514.36,12784,5.06,71818.8,-8.21,-10.15,-9.75,0,*6D
1512817515.59,12785,5.06,71818.5,-8.21,-10.05,-9.61,0,*68
1512817516.79,12786,5.0,71816.5,-8.21,-10.05,-9.71,0,*6A
1512817518.0,12787,5.06,71816.3,-8.21,-10.15,-9.71,0,*6A
1512817519.23,12788,5.06,71822.3,-8.21,-10.15,-9.49,0,*6E
1512817520.46,12789,5.06,71822.0,-8.19,-10.15,-9.79,0,*67
1512817521.69,12790,5.06,71816.3,-8.19,-10.27,-9.93,0,*6A
1512817522.92,12791,5.06,71818.5,-8.19,-10.23,-9.71,0,*63
1512817524.17,12792,5.06,71818.5,-8.19,-10.09,-9.57,0,*6C
1512817525.39,12793,5.06,71820.0,-8.17,-10.01,-9.57,0,*6B
1512817526.61,12794,5.06,71818.0,-8.17,-10.01,-9.57,0,*6C
1512817527.83,12795,5.0,71818.5,-8.17,-10.01,-9.57,0,*6D
1512817529.08,12796,5.06,71816.8,-8.15,-10.09,-9.61,0,*61
1512817530.31,12797,5.0,71816.5,-8.15,-10.09,-9.75,0,*65
1512817531.53,12798,5.06,71818.8,-8.13,-9.97,-9.61,0,*56
1512817532.73,12799,5.06,71818.5,-8.13,-10.09,-9.67,0,*6E
1512817533.96,12800,5.06,71818.0,-8.15,-10.23,-9.75,0,*6C
1512817535.17,12801,5.0,71816.8,-8.13,-10.19,-9.75,0,*62
1512817536.39,12802,5.06,71818.8,-8.13,-10.05,-9.61,0,*69
1512817537.64,12803,5.06,71818.5,-8.11,-10.01,-9.49,0,*64
1512817538.89,12804,5.06,71820.5,-8.07,-9.97,-9.53,0,*58
1512817540.13,12805,5.06,71818.5,-8.07,-10.09,-9.57,0,*62
1512817541.38,12806,5.06,71818.5,-8.07,-9.97,-9.57,0,*5E
1512817542.61,12807,5.06,71816.5,-8.07,-10.15,-9.71,0,*69
1512817543.86,12808,5.06,71818.5,-8.07,-10.01,-9.57,0,*67
1512817545.04,12809,5.06,71818.5,-8.05,-9.89,-9.31,0,*5C
1512817546.26,12810,5.06,71818.5,-8.05,-9.89,-9.41,0,*53
1512817547.47,12811,5.06,71816.5,-8.05,-9.83,-9.31,0,*5F
1512817548.67,12812,5.06,71818.3,-8.05,-9.79,-9.19,0,*53
1512817549.92,12813,5.06,71816.0,-8.03,-9.71,-9.15,0,*50
1512817551.14,12814,5.06,71818.3,-8.03,-9.79,-9.31,0,*59
1512817552.39,12815,5.06,71818.5,-8.03,-9.97,-9.53,0,*5C
1512817553.61,12816,5.06,71816.0,-8.01,-9.97,-9.37,0,*5F
1512817554.83,12817,5.06,71818.3,-8.01,-9.93,-9.37,0,*5A
1512817556.05,12818,5.06,71816.3,-8.01,-9.83,-9.27,0,*55
1512817557.3,12819,5.0,71814.3,-8.01,-9.83,-9.37,0,*55
1512817558.55,12820,5.06,71818.5,-7.99,-9.93,-9.41,0,*51
1512817559.77,12821,5.06,71820.8,-7.97,-9.93,-9.45,0,*5A
1512817561.01,12822,5.06,71816.3,-7.99,-9.93,-9.41,0,*53
1512817562.23,12823,5.06,71816.8,-7.97,-9.93,-9.45,0,*58
1512817563.47,12824,5.06,71818.3,-7.95,-9.97,-9.41,0,*5D
1512817564.7,12825,5.06,71816.8,-7.97,-10.01,-9.49,0,*61
1512817565.93,12826,5.06,71816.0,-7.97,-10.01,-9.49,0,*62
1512817567.17,12827,5.0,71816.5,-7.95,-9.97,-9.53,0,*5D
1512817568.42,12828,5.06,71816.3,-7.95,-10.01,-9.53,0,*65
1512817569.67,12829,5.0,71814.5,-7.95,-9.97,-9.53,0,*53
1512817570.91,12830,5.06,71814.8,-7.95,-10.09,-9.53,0,*64
1512817572.17,12831,5.06,71816.8,-7.95,-10.01,-9.53,0,*6D
1512817573.39,12832,5.06,71818.8,-7.93,-10.01,-9.49,0,*63
1512817574.6,12833,5.06,71818.3,-7.93,-10.01,-9.57,0,*6D
1512817575.85,12834,5.06,71818.5,-7.91,-10.09,-9.61,0,*65
1512817577.05,12835,5.06,71816.0,-7.93,-10.35,-9.89,0,*6F
1512817578.26,12836,5.06,71818.3,-7.93,-10.27,-9.75,0,*6C
1512817579.52,12837,5.06,71818.8,-7.91,-10.19,-9.53,0,*66
1512817580.75,12838,5.06,71818.8,-7.91,-10.23,-9.67,0,*67
1512817581.98,12839,5.06,71816.3,-7.91,-10.23,-9.71,0,*61
1512817583.23,12840,5.0,71816.0,-7.91,-10.09,-9.53,0,*67
1512817584.48,12841,5.06,71818.3,-7.91,-9.97,-9.49,0,*52
1512817585.71,12842,5.0,71814.5,-7.91,-10.31,-9.71,0,*6E
1512817586.94,12843,5.06,71816.0,-7.91,-10.23,-9.71,0,*6C
1512817588.14,12844,5.06,71816.5,-7.89,-10.31,-9.67,0,*66
1512817589.35,12845,5.06,71818.5,-7.89,-10.35,-9.79,0,*6C
1512817590.59,12846,5.06,71818.0,-7.85,-10.31,-9.75,0,*6B
1512817591.82,12847,5.06,71814.0,-7.85,-10.27,-9.67,0,*6E
1512817593.02,12848,5.06,71818.3,-7.89,-10.31,-9.71,0,*6D
1512817594.26,12849,5.06,71816.0,-7.89,-10.19,-9.61,0,*67
1512817595.51,12850,5.06,71814.8,-7.85,-10.01,-9.45,0,*6C
1512817596.73,12851,5.06,71818.3,-7.89,-10.09,-9.61,0,*6F
1512817597.98,12852,5.06,71814.5,-7.85,-10.05,-9.57,0,*69
1512817599.23,12853,5.06,71816.5,-7.85,-10.15,-9.57,0,*69
1512817600.49,12854,5.06,71816.8,-7.85,-10.15,-9.49,0,*61
1512817601.72,12855,5.06,71818.8,-7.83,-10.01,-9.49,0,*63
1512817602.97,12856,5.06,71818.8,-7.81,-9.97,-9.45,0,*59
1512817604.21,12857,5.06,71816.5,-7.83,-10.15,-9.57,0,*6B
1512817605.45,12858,5.06,71816.8,-7.83,-10.15,-9.61,0,*61
1512817606.68,12859,5.06,71812.3,-7.83,-10.05,-9.49,0,*6B
1512817607.91,12860,5.06,71814.3,-7.83,-10.01,-9.49,0,*65
1512817609.14,12861,5.06,71812.8,-7.83,-10.01,-9.49,0,*64
1512817610.39,12862,5.06,71812.0,-7.81,-10.09,-9.53,0,*66
1512817611.65,12863,5.0,71812.5,-7.81,-10.09,-9.53,0,*67
1512817612.9,12864,5.0,71814.0,-7.81,-10.01,-9.45,0,*6F
1512817614.13,12865,5.06,71816.8,-7.83,-10.05,-9.49,0,*64
1512817615.36,12866,5.06,71816.0,-7.79,-10.01,-9.45,0,*6A
1512817616.61,12867,5.06,71818.0,-7.77,-10.09,-9.53,0,*6A
1512817617.86,12868,5.06,71814.3,-7.81,-10.09,-9.53,0,*6C
1512817619.09,12869,5.06,71818.0,-7.79,-10.01,-9.45,0,*65
1512817620.31,12870,5.06,71816.3,-7.79,-9.97,-9.45,0,*5A
1512817621.53,12871,5.06,71814.5,-7.79,-10.09,-9.57,0,*67
1512817622.75,12872,5.06,71818.0,-7.79,-10.09,-9.61,0,*61
1512817624.0,12873,5.06,71814.8,-7.77,-10.09,-9.53,0,*6F
1512817625.23,12874,5.06,71818.3,-7.79,-10.27,-9.83,0,*67
1512817626.46,12875,5.06,71818.8,-7.77,-10.19,-9.67,0,*6F
1512817627.71,12876,5.06,71816.8,-7.77,-10.09,-9.53,0,*6A
1512817628.94,12877,5.06,71814.3,-7.79,-10.01,-9.45,0,*6A
1512817630.18,12878,5.0,71814.8,-7.77,-9.93,-9.37,0,*5D
1512817631.4,12879,5.06,71812.5,-7.79,-9.97,-9.37,0,*56
1512817632.65,12880,5.06,71818.0,-7.77,-10.05,-9.49,0,*64
1512817633.87,12881,5.06,71814.8,-7.75,-10.05,-9.49,0,*67
1512817635.09,12882,5.06,71812.3,-7.75,-10.09,-9.49,0,*68
1512817636.32,12883,5.06,71812.3,-7.75,-10.09,-9.49,0,*69
1512817637.57,12884,5.06,71812.3,-7.73,-10.01,-9.53,0,*6B
1512817638.8,12885,5.06,71812.3,-7.75,-10.05,-9.53,0,*68
1512817640.02,12886,5.06,71816.0,-7.75,-9.97,-9.49,0,*53
1512817641.24,12887,5.06,71818.3,-7.75,-10.09,-9.45,0,*61
1512817642.49,12888,5.06,71816.5,-7.73,-10.05,-9.49,0,*68
1512817643.74,12889,5.06,71812.0,-7.73,-10.15,-9.61,0,*62
1512817644.99,12890,5.06,71816.8,-7.73,-10.05,-9.49,0,*61
1512817646.23,12891,5.06,71816.0,-7.73,-10.05,-9.49,0,*60
1512817647.49,12892,5.06,71812.3,-7.73,-10.15,-9.49,0,*62
1512817648.75,12893,5.06,71816.0,-7.73,-10.15,-9.49,0,*63
1512817649.97,12894,5.06,71812.5,-7.71,-10.01,-9.45,0,*6F
1512817651.2,12895,5.06,71816.0,-7.71,-10.01,-9.45,0,*6E
1512817652.45,12896,5.06,71814.5,-7.73,-10.01,-9.49,0,*63
1512817653.69,12897,5.06,71814.5,-7.73,-10.05,-9.53,0,*6D
1512817654.92,12898,5.06,71814.8,-7.71,-10.19,-9.61,0,*6C
1512817656.13,12899,5.06,71814.5,-7.71,-10.19,-9.67,0,*6B
1512817657.36,12900,5.06,71812.5,-7.71,-10.15,-9.61,0,*60
1512817658.58,12901,5.06,71814.8,-7.71,-10.05,-9.45,0,*66
1512817659.82,12902,5.06,71814.5,-7.69,-9.97,-9.49,0,*53
1512817661.03,12903,5.06,71814.5,-7.71,-10.19,-9.67,0,*69
1512817662.26,12904,5.06,71814.3,-7.69,-10.23,-9.71,0,*69
1512817663.51,12905,5.06,71812.3,-7.69,-10.15,-9.61,0,*6C
1512817664.72,12906,5.06,71814.8,-7.71,-10.19,-9.67,0,*6C
1512817665.94,12907,5.06,71816.8,-7.67,-10.09,-9.57,0,*68
1512817667.16,12908,5.06,71814.3,-7.67,-10.09,-9.57,0,*67
1512817668.39,12909,5.06,71814.0,-7.67,-10.15,-9.61,0,*6E
1512817669.61,12910,5.06,71814.3,-7.67,-10.09,-9.57,0,*6E
1512817670.86,12911,5.06,71816.0,-7.69,-10.15,-9.57,0,*6C
1512817672.09,12912,5.06,71816.3,-7.69,-10.23,-9.75,0,*6A
1512817673.3,12913,5.06,71814.8,-7.67,-10.23,-9.71,0,*61
1512817674.51,12914,5.06,71814.5,-7.67,-10.15,-9.71,0,*63
1512817675.75,12915,5.06,71816.0,-7.65,-10.05,-9.41,0,*62
1512817676.97,12916,5.06,71812.5,-7.67,-10.09,-9.49,0,*67
1512817678.22,12917,5.06,71816.0,-7.65,-10.05,-9.45,0,*64
1512817679.46,12918,5.06,71816.0,-7.65,-10.09,-9.57,0,*64
1512817680.69,12919,5.06,71812.5,-7.65,-10.19,-9.67,0,*67
1512817681.92,12920,5.06,71816.0,-7.65,-10.19,-9.67,0,*6D
1512817683.15,12921,5.06,71816.3,-7.65,-10.19,-9.67,0,*6C
1512817684.36,12922,5.06,71814.5,-7.67,-10.23,-9.71,0,*63
1512817685.58,12923,5.06,71812.5,-7.65,-10.19,-9.67,0,*6E
1512817686.82,12924,5.06,71814.3,-7.65,-10.19,-9.71,0,*6E
1512817688.07,12925,5.06,71812.5,-7.65,-10.19,-9.57,0,*6B
1512817689.31,12926,5.06,71814.3,-7.65,-10.09,-9.45,0,*6A
1512817690.54,12927,5.06,71814.0,-7.67,-10.15,-9.57,0,*67
1512817691.76,12928,5.06,71812.3,-7.65,-10.09,-9.67,0,*64
1512817693.02,12929,5.06,71812.3,-7.61,-10.19,-9.53,0,*67
1512817694.24,12930,5.06,71812.5,-7.61,-10.23,-9.71,0,*66
1512817695.47,12931,5.06,71812.3,-7.59,-10.41,-9.89,0,*6F
1512817696.7,12932,5.06,71814.3,-7.61,-10.19,-9.67,0,*6A
1512817697.93,12933,5.06,71814.8,-7.59,-10.05,-9.53,0,*6A
1512817699.15,12934,5.06,71812.8,-7.61,-10.23,-9.79,0,*6A
1512817700.38,12935,5.06,71812.5,-7.61,-10.27,-9.79,0,*6F
1512817701.61,12936,5.06,71810.5,-7.61,-10.19,-9.67,0,*6E
1512817702.86,12937,5.06,71814.5,-7.61,-10.35,-9.83,0,*6B
1512817704.08,12938,5.06,71816.3,-7.61,-10.49,-9.97,0,*6A
1512817705.29,12939,5.06,71812.3,-7.59,-10.23,-9.75,0,*60
1512817706.51,12940,5.06,71814.8,-7.61,-10.53,-10.05,0,*5D
1512817707.76,12941,5.06,71814.8,-7.59,-10.63,-10.15,0,*55
1512817708.96,12942,5.06,71812.8,-7.59,-10.45,-10.05,0,*53
1512817710.17,12943,5.06,71812.3,-7.59,-10.45,-9.93,0,*65
1512817711.41,12944,5.06,71814.0,-7.59,-10.63,-10.15,0,*50
1512817712.64,12945,5.06,71812.8,-7.61,-10.53,-10.05,0,*58
1512817713.86,12946,5.06,71812.3,-7.61,-10.27,-9.93,0,*6F